Weather History for Rockport, TX

Change the Weather History Date:

Tuesday, October 16, 2012

  Actual Average Record
Temperature  
Mean Temperature 76 °F -  
Max Temperature 82 °F 82 °F 90 °F (1991)
Min Temperature 71 °F 65 °F 43 °F (1974)
Cooling Degree Days 12    
Growing Degree Days 26 (Base 50)    
Moisture  
Dew Point 70 °F    
Average Humidity 80    
Maximum Humidity 94    
Minimum Humidity 64    
Precipitation  
Precipitation 0.02 in - - ()
Sea Level Pressure  
Sea Level Pressure 29.85 in    
Wind  
Wind Speed 9 mph (ESE)    
Max Wind Speed 18 mph    
Max Gust Speed 24 mph    
Visibility 10 miles    
Events Rain    
Averages and records for this station are not official NWS values.
T = Trace of Precipitation, MM = Missing Value Source: NWS Daily Summary

Daily Weather History Graph

Daily Weather History Graph

Search for Another Location

Airport:

Trip Planner

Search our weather history database for the weather conditions in past years. The results will help you decide how hot, cold, wet, or windy it might be!

Date:

Astronomy

Oct. 16, 2012 Rise Set
Actual Time 7:29 AM CDT 6:57 PM CDT
Civil Twilight 7:05 AM CDT 7:20 PM CDT
Nautical Twilight 6:38 AM CDT 7:48 PM CDT
Astronomical Twilight 6:11 AM CDT 8:15 PM CDT
Moon 8:43 AM CDT (10/16) 7:55 PM CDT (10/16)
Length of Visible Light 12h 15m
Length of Day
11h 27m
New Moon, 2% of the Moon is Illuminated
Oct 16
New Moon
Oct 21
First Quarter
Oct 29
Full
Nov 6
Last Quarter
Nov 13
New

Hourly Weather History & Observations

Time (CDT) Temp. Heat Index Dew Point Humidity Pressure Visibility Wind Dir Wind Speed Gust Speed Precip Events Conditions
12:53 AM 73.0 °F - 66.9 °F 81% 29.97 in 10.0 mi East 8.1 mph - N/A   Clear
1:53 AM 73.9 °F - 68.0 °F 82% 29.96 in 10.0 mi ENE 5.8 mph - N/A   Clear
2:53 AM 77.0 °F - 64.9 °F 66% 29.94 in 10.0 mi East 9.2 mph - N/A   Clear
3:53 AM 77.0 °F - 64.0 °F 64% 29.93 in 10.0 mi ESE 10.4 mph - N/A   Clear
4:53 AM 77.0 °F - 64.9 °F 66% 29.91 in 10.0 mi ESE 9.2 mph - N/A   Clear
5:53 AM 77.0 °F - 66.9 °F 71% 29.91 in 10.0 mi SE 8.1 mph - N/A   Clear
7:53 AM 77.0 °F - 69.1 °F 76% 29.90 in 10.0 mi ESE 8.1 mph - N/A   Clear
8:53 AM 79.0 °F - 70.0 °F 74% 29.92 in 10.0 mi ESE 6.9 mph - N/A   Mostly Cloudy
9:03 AM 78.8 °F - 69.8 °F 74% 29.90 in 10.0 mi ESE 8.1 mph - N/A   Scattered Clouds
9:53 AM 81.0 °F 84.9 °F 71.1 °F 72% 29.92 in 10.0 mi ESE 10.4 mph - N/A   Scattered Clouds
10:53 AM 82.0 °F 86.3 °F 71.1 °F 69% 29.92 in 10.0 mi SE 9.2 mph - N/A   Scattered Clouds
11:53 AM 77.0 °F - 73.9 °F 90% 29.91 in 8.0 mi South 5.8 mph - 0.02 in Rain Light Rain
12:53 PM 79.0 °F - 73.0 °F 82% 29.89 in 10.0 mi Calm Calm - 0.00 in   Mostly Cloudy
1:53 PM 81.0 °F 85.8 °F 73.0 °F 77% 29.85 in 10.0 mi Calm Calm - N/A   Partly Cloudy
2:53 PM 81.0 °F 85.8 °F 73.0 °F 77% 29.82 in 10.0 mi SE 6.9 mph - N/A   Mostly Cloudy
3:03 PM 80.6 °F 85.4 °F 73.4 °F 79% 29.81 in 10.0 mi SE 4.6 mph - N/A   Mostly Cloudy
3:22 PM 80.6 °F 84.6 °F 71.6 °F 74% 29.79 in 10.0 mi SE 6.9 mph - N/A   Mostly Cloudy
3:53 PM 82.0 °F 87.4 °F 73.0 °F 74% 29.79 in 10.0 mi SSE 5.8 mph - N/A   Clear
4:53 PM 80.1 °F 84.2 °F 73.0 °F 79% 29.78 in 10.0 mi SE 6.9 mph - N/A   Scattered Clouds
5:53 PM 80.1 °F 84.2 °F 73.0 °F 79% 29.77 in 10.0 mi SE 6.9 mph - N/A   Mostly Cloudy
6:53 PM 79.0 °F - 73.0 °F 82% 29.78 in 10.0 mi ESE 6.9 mph - N/A   Scattered Clouds
7:53 PM 79.0 °F - 73.9 °F 84% 29.79 in 10.0 mi ENE 6.9 mph - N/A   Overcast
8:53 PM 78.1 °F - 73.9 °F 87% 29.81 in 10.0 mi ENE 9.2 mph - 0.00 in Rain Light Rain
9:07 PM 77.0 °F - 73.4 °F 89% 29.81 in 10.0 mi NE 16.1 mph 21.9 mph 0.00 in   Overcast
9:28 PM 71.6 °F - 69.8 °F 94% 29.83 in 9.0 mi ENE 12.7 mph - 0.00 in Rain Light Rain
9:53 PM 72.0 °F - 69.1 °F 91% 29.83 in 10.0 mi ENE 13.8 mph - 0.00 in   Overcast
10:18 PM 71.6 °F - 69.8 °F 94% 29.82 in 10.0 mi ENE 18.4 mph 23.0 mph 0.00 in Rain Light Rain
10:36 PM 71.6 °F - 68.0 °F 88% 29.81 in 10.0 mi East 17.3 mph 24.2 mph 0.00 in   Scattered Clouds
10:48 PM 71.6 °F - 68.0 °F 88% 29.80 in 10.0 mi East 16.1 mph - 0.00 in   Partly Cloudy
10:53 PM 72.0 °F - 68.0 °F 87% 29.81 in 10.0 mi East 16.1 mph 23.0 mph 0.00 in   Clear
11:53 PM 73.9 °F - 70.0 °F 87% 29.81 in 10.0 mi East 16.1 mph 23.0 mph 0.00 in   Mostly Cloudy